Regional Weather Roundup
Issued by NWS

Home | Current Version | Previous Version | Text Only | Print | Product List | Glossary Off
Versions: 1 2 3 4 5 6 7 8 9 10 11 12 13 14 15 16 17 18 19 20 21 22 23 24 25 26 27 28 29 30 31 32 33 34 35 36 37 38 39 40 41 42 43 44 45 46 47 48 49 50

501
ASUS43 KLOT 210703
RWRIL

ILLINOIS REGIONAL WEATHER ROUNDUP
NATIONAL WEATHER SERVICE CHICAGO/ROMEOVILLE IL
100 AM CST SAT JAN 21 2017

NOTE: "FAIR" INDICATES FEW OR NO CLOUDS BELOW 12,000 FEET WITH NO
SIGNIFICANT WEATHER AND/OR OBSTRUCTIONS TO VISIBILITY.

* THESE STATIONS ARE NOT UNDER NWS QUALITY CONTROL. THEY ALSO MAY NOT
  REPORT WEATHER SUCH AS PRECIPITATION OR FOG.

ILZ001-002-007-009-015-016-024-210800-
NORTHWEST ILLINOIS

CITY           SKY/WX    TMP DP  RH WIND       PRES   REMARKS
MOLINE         LGT RAIN  42  40  92 E6        29.50F VSB 3/4
STERLING*      FOG       39  39 100 E6        29.54F VSB 1/4 WCI  35
SAVANNA*       FOG       40  40 100 E6        29.54F VSB 1/2
$$

ILZ003-004-008-010-011-017-018-210800-
NORTH CENTRAL ILLINOIS

CITY           SKY/WX    TMP DP  RH WIND       PRES   REMARKS
ROCKFORD       FOG       42  41  96 SE6       29.58F VSB 3/4
FREEPORT*      FOG       37  37  99 E5        29.57F VSB 1/4 WCI  33
ROCHELLE*      CLOUDY    43  43 100 SE8       29.56F FOG
DE KALB*       FOG       43  43  99 SE8       29.58F VSB 1/4
$$

ILZ005-006-012>014-019>023-210800-
NORTHEAST ILLINOIS

CITY           SKY/WX    TMP DP  RH WIND       PRES   REMARKS
CHICAGO-OHARE  DRZL/FOG  42  42 100 SE6       29.59F VSB 3/4
CHICAGO-MIDWAY CLOUDY    46  45  96 S3        29.60F FOG
AURORA         CLOUDY    45  44  97 SE8       29.58F FOG
LANSING*       CLOUDY    46  46 100 S5        29.62S FOG
JOLIET*        CLOUDY    47  47 100 SE3       29.59F FOG
WAUKEGAN       FOG       38  38 100 E5        29.59F VSB 1/4 WCI  34
DUPAGE AIRPORT CLOUDY    46  44  93 SE7       29.57F FOG
WHEELING       CLOUDY    39  38  96 CALM      29.61S FOG
MORRIS*        CLOUDY    46  45  97 SE6       29.58F FOG
ROMEOVILLE*    CLOUDY    45  45 100 SE7       29.59F FOG
NORTHERLY ISL    N/A     39  38  96 CALM        N/A
$$

LMZ740>746-210800-
SOUTHERN LAKE MICHIGAN

STATION/POSITION SKY/WX   TEMP    WIND        PRES    VSBY  WAVE
                          AIR SEA DIR/SP/G                  HT/PER
                          (F)     (DEG/KT/KT) (MB)    (MI)  (FT/S)
HARRISON CRIB              42     170/  6/  7   N/A
BURNHAM HARBOR             39      CALM  /  6   N/A
CALUMET HARBOR             48     130/ 10/ 13 1001.8F
BURNS HARBOR               50     170/  8/ 14 1003.7F
MICHIGAN CITY              50     140/ 14/ 17   N/A
$$

ILZ025>027-034>036-040-047-049-050-058-095>099-210800-
WEST-CENTRAL ILLINOIS

CITY           SKY/WX    TMP DP  RH WIND       PRES   REMARKS
QUINCY         CLEAR     48  47  96 S12       29.50F FOG
GALESBURG*     CLOUDY    48  48 100 SE10      29.51S FOG
MACOMB*        CLOUDY    48  48 100 S13       29.53F FOG
JACKSONVILLE*  CLEAR     51  49  93 S12G18    29.55S
PITTSFIELD*    CLEAR     49  48  97 S9        29.54F
$$

ILZ028>032-037-038-041>044-048-051>054-059>061-210800-
CENTRAL ILLINOIS

CITY           SKY/WX    TMP DP  RH WIND       PRES   REMARKS
BLOOMINGTON    MOCLDY    50  49  96 S17       29.58F
DECATUR        PTCLDY    51  51 100 S14       29.60S
PEORIA         PTCLDY    50  49  96 S13       29.55S
LACON*         MOCLDY    44  44 100 S5        29.54F FOG
LINCOLN*       CLEAR     50  50  99 S8        29.57F FOG
SPRINGFIELD    CLEAR     54  50  86 S15       29.57F
TAYLORVILLE    PTCLDY    50  49  97 S12       29.59F
$$

ILZ033-039-045-046-055>057-062-063-210800-
EAST-CENTRAL ILLINOIS

CITY           SKY/WX    TMP DP  RH WIND       PRES   REMARKS
CHAMPAIGN      CLEAR     51  48  89 S13       29.61F
MATTOON        CLEAR     50  49  96 S9        29.61F
PARIS*         CLEAR     49  49  99 SE10      29.64F
$$

ILZ079-100>102-210800-
SOUTHWEST ILLINOIS

CITY           SKY/WX    TMP DP  RH WIND       PRES   REMARKS
ALTON          PTCLDY    53  50  91 S13       29.59S
BELLEVILLE     CLOUDY    53  53 100 E6        29.61R
CAHOKIA*       MOCLDY    51  48  89 SE8       29.59F
SPARTA*        PTCLDY    54  51  89 S12       29.65R
$$

ILZ064>066-069>071-074>076-080>082-084>086-088>090-092>094-210800-
SOUTH-CENTRAL ILLINOIS

CITY           SKY/WX    TMP DP  RH WIND       PRES   REMARKS
CARBONDALE     PTCLDY    51  51 100 SE5       29.66R
CAIRO*         MOCLDY    54  52  90 S6        29.67F
EFFINGHAM*     CLEAR     52  52 100 SE6       29.65S
MARION         CLOUDY    52  52 100 S6        29.68R
MT. VERNON     CLEAR     48  48 100 SW6       29.66R
CENTRALIA*     PTCLDY    54  52  94 S10       29.64R
SALEM*         PTCLDY    55  51  87 S13       29.64R
$$

ILZ067-068-072-073-078-083-087-091-210800-
SOUTHEAST ILLINOIS

CITY           SKY/WX    TMP DP  RH WIND       PRES   REMARKS
LAWRENCEVILLE  CLEAR     47  47 100 S6        29.67S FOG
FLORA*         CLEAR     49  48  97 S7        29.66R
FAIRFIELD*     PTCLDY    50  50  99 S5        29.66R
HARRISBURG*    MOCLDY    56  53  89 SW9       29.68R
ROBINSON*      PTCLDY    49  49  99 S7        29.67F
CARMI*         PTCLDY    49  49 100 S9        29.68R
$$

ABBREVIATIONS USED IN REMARKS
   TC - TEMPERATURE IN CELSIUS
  WCI - WIND CHILL INDEX
   HX - HEAT INDEX
  VSB - VISIBILITY
$$





USA.gov is the U.S. government's official web portal to all federal, state and local government web resources and services.